,,PA_Meas_PMT16A,,PR_Meas_QMR101_102,,RH_Meas_QMH101,,SR_Meas_QMS101,,TA_Meas_QMH101,,GenWind,,GenWind,
time,status,PA,status,PR,status,RH,status,SR,status,TA,status,DirAvg,status,SpdAvg,
2010-08-29, 00:00:04,VALID,918.899,VALID,0,VALID,95.4757,VALID,0,VALID,19.4493,VALID,76,VALID,0.437891,
2010-08-29, 00:01:04,VALID,918.885,VALID,0,VALID,95.2622,VALID,0,VALID,19.4493,VALID,77,VALID,0.670313,
2010-08-29, 00:02:04,VALID,918.888,VALID,0,VALID,95.0183,VALID,0,VALID,19.4478,VALID,76,VALID,0.641406,
2010-08-29, 00:03:04,VALID,918.88,VALID,0,VALID,94.66,VALID,0,VALID,19.4673,VALID,77,VALID,0.839844,
2010-08-29, 00:04:04,VALID,918.942,VALID,0,VALID,94.233,VALID,0,VALID,19.4868,VALID,77,VALID,0.953906,
2010-08-29, 00:05:04,VALID,918.917,VALID,0,VALID,93.7909,VALID,0,VALID,19.5063,VALID,76,VALID,0.941016,
2010-08-29, 00:06:04,VALID,918.944,VALID,0,VALID,93.1886,VALID,0.107441,VALID,19.5258,VALID,75,VALID,0.862891,
2010-08-29, 00:07:04,VALID,918.961,VALID,0,VALID,93.1353,VALID,0,VALID,19.5843,VALID,77,VALID,0.965234,
2010-08-29, 00:08:04,VALID,918.965,VALID,0,VALID,93.2572,VALID,0,VALID,19.6233,VALID,76,VALID,0.916797,
2010-08-29, 00:09:04,VALID,918.976,VALID,0,VALID,93.059,VALID,0,VALID,19.6038,VALID,76,VALID,0.722266,
2010-08-29, 00:10:04,VALID,918.967,VALID,0,VALID,92.4415,VALID,0,VALID,19.6038,VALID,77,VALID,1.12695,
2010-08-29, 00:11:04,VALID,918.984,VALID,0,VALID,91.9918,VALID,0,VALID,19.6443,VALID,77,VALID,0.951563,
2010-08-29, 00:12:04,VALID,918.946,VALID,0,VALID,91.4962,VALID,0,VALID,19.6428,VALID,77,VALID,1.075,
2010-08-29, 00:13:04,VALID,918.953,VALID,0,VALID,91.8393,VALID,0,VALID,19.6233,VALID,76,VALID,0.693359,
2010-08-29, 00:14:04,VALID,918.932,VALID,0,VALID,91.8622,VALID,0,VALID,19.6248,VALID,77,VALID,0.708203,
2010-08-29, 00:15:04,VALID,918.896,VALID,0,VALID,91.946,VALID,0,VALID,19.6248,VALID,77,VALID,0.95,
2010-08-29, 00:16:04,VALID,918.882,VALID,0,VALID,92.1214,VALID,0,VALID,19.6038,VALID,77,VALID,0.894141,
2010-08-29, 00:17:04,VALID,918.934,VALID,0,VALID,92.3729,VALID,0,VALID,19.6053,VALID,77,VALID,0.782422,
2010-08-29, 00:18:04,VALID,918.893,VALID,0,VALID,92.5406,VALID,0,VALID,19.5648,VALID,77,VALID,0.487891,
2010-08-29, 00:19:04,VALID,918.893,VALID,0,VALID,92.7312,VALID,0,VALID,19.5648,VALID,77,VALID,0.520312,
2010-08-29, 00:20:04,VALID,918.877,VALID,0,VALID,93.0514,VALID,0.107441,VALID,19.5843,VALID,77,VALID,0.817578,
2010-08-29, 00:21:04,VALID,918.855,VALID,0,VALID,93.2801,VALID,0,VALID,19.5843,VALID,77,VALID,0.452734,
2010-08-29, 00:22:04,VALID,918.854,VALID,0,VALID,93.4021,VALID,0,VALID,19.5648,VALID,77,VALID,0.637891,
2010-08-29, 00:23:04,VALID,918.806,VALID,0,VALID,93.3716,VALID,0,VALID,19.5648,VALID,77,VALID,0.757031,
2010-08-29, 00:24:04,VALID,918.797,VALID,0,VALID,93.3868,VALID,0,VALID,19.5858,VALID,77,VALID,0.300781,
2010-08-29, 00:25:04,VALID,918.781,VALID,0,VALID,93.3716,VALID,0,VALID,19.5258,VALID,77,VALID,0.535937,
2010-08-29, 00:26:04,VALID,918.752,VALID,0,VALID,93.4783,VALID,0,VALID,19.5078,VALID,78,VALID,0.639453,
2010-08-29, 00:27:04,VALID,918.76,VALID,0,VALID,93.6308,VALID,0,VALID,19.4673,VALID,77,VALID,0.669922,
2010-08-29, 00:28:04,VALID,918.755,VALID,0,VALID,93.7223,VALID,0,VALID,19.4478,VALID,78,VALID,0.578906,
2010-08-29, 00:29:04,VALID,918.734,VALID,0,VALID,93.7833,VALID,0,VALID,19.4478,VALID,77,VALID,0.605859,
2010-08-29, 00:30:04,VALID,918.74,VALID,0,VALID,93.7756,VALID,0,VALID,19.4283,VALID,77,VALID,0.591016,
2010-08-29, 00:31:04,VALID,918.739,VALID,0,VALID,93.8214,VALID,0,VALID,19.4088,VALID,78,VALID,0.537891,
2010-08-29, 00:32:04,VALID,918.752,VALID,0,VALID,93.9357,VALID,0,VALID,19.3698,VALID,77,VALID,0.697266,
2010-08-29, 00:33:04,VALID,918.73,VALID,0,VALID,94.0577,VALID,0,VALID,19.3308,VALID,77,VALID,0.628906,
2010-08-29, 00:34:04,VALID,918.74,VALID,0,VALID,94.2635,VALID,0,VALID,19.3518,VALID,77,VALID,0.66875,
2010-08-29, 00:35:05,VALID,918.742,VALID,0,VALID,94.233,VALID,0,VALID,19.3308,VALID,77,VALID,0.655469,
2010-08-29, 00:36:05,VALID,918.739,VALID,0,VALID,94.0806,VALID,0,VALID,19.2918,VALID,77,VALID,0.810938,
2010-08-29, 00:37:05,VALID,918.722,VALID,0,VALID,93.5317,VALID,0,VALID,19.2528,VALID,77,VALID,0.886719,
2010-08-29, 00:38:05,VALID,918.692,VALID,0,VALID,92.9447,VALID,0,VALID,19.2918,VALID,78,VALID,0.792188,
2010-08-29, 00:39:05,VALID,918.706,VALID,0,VALID,91.7021,VALID,0,VALID,19.3308,VALID,78,VALID,0.638672,
2010-08-29, 00:40:05,VALID,918.678,VALID,0,VALID,91.1532,VALID,0,VALID,19.4088,VALID,77,VALID,0.360938,
2010-08-29, 00:41:05,VALID,918.675,VALID,0,VALID,90.8787,VALID,0,VALID,19.4868,VALID,78,VALID,0.378516,
2010-08-29, 00:42:05,VALID,918.668,VALID,0,VALID,91.1608,VALID,0,VALID,19.5453,VALID,77,VALID,0.445703,
2010-08-29, 00:43:05,VALID,918.64,VALID,0,VALID,90.894,VALID,0,VALID,19.6038,VALID,78,VALID,0.516016,
2010-08-29, 00:44:05,VALID,918.637,VALID,0,VALID,90.9702,VALID,0,VALID,19.6818,VALID,77,VALID,0.594922,
2010-08-29, 00:45:05,VALID,918.654,VALID,0,VALID,91.4657,VALID,0,VALID,19.7013,VALID,77,VALID,0.260156,
2010-08-29, 00:46:05,VALID,918.609,VALID,0,VALID,91.7707,VALID,0,VALID,19.7208,VALID,77,VALID,0.302734,
2010-08-29, 00:47:05,VALID,918.626,VALID,0,VALID,91.8774,VALID,0,VALID,19.7208,VALID,77,VALID,0.153516,
2010-08-29, 00:48:05,VALID,918.611,VALID,0,VALID,91.7859,VALID,0,VALID,19.7013,VALID,77,VALID,0,
2010-08-29, 00:49:05,VALID,918.636,VALID,0,VALID,92.007,VALID,0,VALID,19.6833,VALID,77,VALID,0.182812,
2010-08-29, 00:50:05,VALID,918.595,VALID,0,VALID,91.9155,VALID,0,VALID,19.6218,VALID,77,VALID,0.330078,
2010-08-29, 00:51:05,VALID,918.592,VALID,0,VALID,91.9689,VALID,0,VALID,19.5648,VALID,77,VALID,0.444531,
2010-08-29, 00:52:05,VALID,918.577,VALID,0,VALID,92.1442,VALID,0,VALID,19.5258,VALID,78,VALID,0.444141,
2010-08-29, 00:53:05,VALID,918.594,VALID,0,VALID,92.3653,VALID,0,VALID,19.4673,VALID,78,VALID,0.366016,
2010-08-29, 00:54:05,VALID,918.538,VALID,0,VALID,91.8698,VALID,0,VALID,19.4283,VALID,78,VALID,0.654297,
2010-08-29, 00:55:05,VALID,918.525,VALID,0,VALID,90.6119,VALID,0,VALID,19.4478,VALID,77,VALID,0.508984,
2010-08-29, 00:56:05,VALID,918.487,VALID,0,VALID,91.1379,VALID,0,VALID,19.5273,VALID,77,VALID,0.644141,
2010-08-29, 00:57:05,VALID,918.499,VALID,0,VALID,91.2523,VALID,0,VALID,19.5453,VALID,78,VALID,0.250391,
2010-08-29, 00:58:05,VALID,918.5,VALID,0,VALID,89.9411,VALID,0.107441,VALID,19.5468,VALID,78,VALID,0.0921875,
2010-08-29, 00:59:05,VALID,918.483,VALID,0,VALID,89.4227,VALID,0,VALID,19.5648,VALID,77,VALID,0,
2010-08-29, 01:00:05,VALID,918.512,VALID,0,VALID,89.0644,VALID,0,VALID,19.6053,VALID,78,VALID,0,
2010-08-29, 01:01:05,VALID,918.509,VALID,0,VALID,89.3541,VALID,0,VALID,19.6233,VALID,77,VALID,0,
2010-08-29, 01:02:05,VALID,918.52,VALID,0,VALID,89.6437,VALID,0,VALID,19.6818,VALID,77,VALID,0,
2010-08-29, 01:03:05,VALID,918.504,VALID,0,VALID,89.194,VALID,0,VALID,19.7223,VALID,77,VALID,0.269531,
2010-08-29, 01:04:05,VALID,918.554,VALID,0,VALID,89.1177,VALID,0,VALID,19.7613,VALID,77,VALID,0.230078,
2010-08-29, 01:05:05,VALID,918.526,VALID,0,VALID,88.2639,VALID,0,VALID,19.7598,VALID,77,VALID,0.319531,
2010-08-29, 01:06:05,VALID,918.488,VALID,0,VALID,88.4088,VALID,0,VALID,19.7988,VALID,77,VALID,0.289063,
2010-08-29, 01:07:05,VALID,918.489,VALID,0,VALID,88.2334,VALID,0,VALID,19.8393,VALID,77,VALID,0.35,
2010-08-29, 01:08:05,VALID,918.469,VALID,0,VALID,87.9209,VALID,0,VALID,19.8393,VALID,77,VALID,0.311719,
2010-08-29, 01:09:05,VALID,918.466,VALID,0,VALID,87.9132,VALID,0,VALID,19.8183,VALID,77,VALID,0.528125,
2010-08-29, 01:10:05,VALID,918.408,VALID,0,VALID,88.3935,VALID,0,VALID,19.8588,VALID,78,VALID,0.507422,
2010-08-29, 01:11:05,VALID,918.437,VALID,0,VALID,88.5307,VALID,0,VALID,19.7988,VALID,77,VALID,0.850391,
2010-08-29, 01:12:05,VALID,918.408,VALID,0,VALID,89.4303,VALID,0,VALID,19.7598,VALID,77,VALID,1.06797,
2010-08-29, 01:13:05,VALID,918.433,VALID,0,VALID,90.1621,VALID,0,VALID,19.6608,VALID,77,VALID,1.1457,
2010-08-29, 01:14:05,VALID,918.365,VALID,0,VALID,90.4213,VALID,0,VALID,19.6038,VALID,77,VALID,0.800781,
2010-08-29, 01:15:05,VALID,918.381,VALID,0,VALID,90.429,VALID,0,VALID,19.5258,VALID,77,VALID,0.844141,
2010-08-29, 01:16:05,VALID,918.337,VALID,0,VALID,90.3604,VALID,0,VALID,19.5063,VALID,77,VALID,0.783203,
2010-08-29, 01:17:05,VALID,918.325,VALID,0,VALID,89.5828,VALID,0,VALID,19.5063,VALID,77,VALID,0.819531,
2010-08-29, 01:18:05,VALID,918.305,VALID,0,VALID,89.0796,VALID,0,VALID,19.5453,VALID,77,VALID,0.763672,
2010-08-29, 01:19:05,VALID,918.244,VALID,0,VALID,87.4558,VALID,0,VALID,19.6038,VALID,77,VALID,0.585547,
2010-08-29, 01:20:05,VALID,918.242,VALID,0,VALID,89.3769,VALID,0,VALID,19.7403,VALID,77,VALID,0.178125,
2010-08-29, 01:21:05,VALID,918.214,VALID,0,VALID,89.2168,VALID,0,VALID,19.7598,VALID,77,VALID,0.384375,
2010-08-29, 01:22:05,VALID,918.21,VALID,0,VALID,89.4303,VALID,0,VALID,19.7793,VALID,77,VALID,0.0777344,
2010-08-29, 01:23:05,VALID,918.204,VALID,0,VALID,89.4532,VALID,0.107441,VALID,19.7793,VALID,77,VALID,0,
2010-08-29, 01:24:05,VALID,918.174,VALID,0,VALID,89.3464,VALID,0,VALID,19.7988,VALID,77,VALID,0.160156,
2010-08-29, 01:25:05,VALID,918.172,VALID,0,VALID,90.1469,VALID,0,VALID,19.7988,VALID,77,VALID,0,
2010-08-29, 01:26:05,VALID,918.157,VALID,0,VALID,90.6272,VALID,0,VALID,19.7988,VALID,77,VALID,0.203125,
2010-08-29, 01:27:05,VALID,918.139,VALID,0,VALID,90.7949,VALID,0,VALID,19.7793,VALID,77,VALID,0.346875,
2010-08-29, 01:28:05,VALID,918.133,VALID,0,VALID,91.016,VALID,0,VALID,19.7793,VALID,77,VALID,0.385938,
2010-08-29, 01:29:05,VALID,918.119,VALID,0,VALID,90.9245,VALID,0,VALID,19.7598,VALID,77,VALID,0.238672,
2010-08-29, 01:30:05,VALID,918.093,VALID,0,VALID,90.9702,VALID,0.107441,VALID,19.7208,VALID,77,VALID,0.1625,
2010-08-29, 01:31:05,VALID,918.121,VALID,0,VALID,90.6882,VALID,0,VALID,19.7013,VALID,77,VALID,0.382031,
2010-08-29, 01:32:05,VALID,918.117,VALID,0,VALID,91.0312,VALID,0,VALID,19.6818,VALID,78,VALID,0.648047,
2010-08-29, 01:33:05,VALID,918.103,VALID,0,VALID,91.42,VALID,0,VALID,19.6038,VALID,77,VALID,0.907812,
2010-08-29, 01:34:05,VALID,918.116,VALID,0,VALID,91.8927,VALID,0,VALID,19.5648,VALID,77,VALID,0.789844,
2010-08-29, 01:35:05,VALID,918.112,VALID,0,VALID,92.3653,VALID,0,VALID,19.5258,VALID,77,VALID,1.10703,
2010-08-29, 01:36:05,VALID,918.102,VALID,0,VALID,92.1519,VALID,0,VALID,19.4673,VALID,78,VALID,0.653125,
2010-08-29, 01:37:05,VALID,918.096,VALID,0,VALID,92.1976,VALID,0.107441,VALID,19.4478,VALID,78,VALID,0.884766,
2010-08-29, 01:38:05,VALID,918.096,VALID,0,VALID,92.6245,VALID,0,VALID,19.4478,VALID,78,VALID,0.737109,
2010-08-29, 01:39:05,VALID,918.07,VALID,0,VALID,92.9981,VALID,0.107441,VALID,19.4283,VALID,78,VALID,0.927734,
2010-08-29, 01:40:05,VALID,918.06,VALID,0,VALID,93.4783,VALID,0.107441,VALID,19.4088,VALID,78,VALID,0.728516,
2010-08-29, 01:41:05,VALID,918.064,VALID,0,VALID,93.829,VALID,0,VALID,19.3503,VALID,78,VALID,0.394141,
2010-08-29, 01:42:05,VALID,918.026,VALID,0,VALID,93.9815,VALID,0,VALID,19.3308,VALID,78,VALID,0.555469,
2010-08-29, 01:43:05,VALID,918.029,VALID,0,VALID,93.9586,VALID,0,VALID,19.3113,VALID,78,VALID,0.494531,
2010-08-29, 01:44:05,VALID,918.013,VALID,0,VALID,93.8138,VALID,0,VALID,19.3113,VALID,78,VALID,0.349609,
2010-08-29, 01:45:05,VALID,918.001,VALID,0,VALID,93.8214,VALID,0,VALID,19.3308,VALID,78,VALID,0,
2010-08-29, 01:46:05,VALID,917.982,VALID,0,VALID,93.8671,VALID,0,VALID,19.3503,VALID,78,VALID,0,
2010-08-29, 01:47:05,VALID,917.979,VALID,0,VALID,93.8824,VALID,0,VALID,19.3503,VALID,78,VALID,0,
2010-08-29, 01:48:05,VALID,917.951,VALID,0,VALID,93.8138,VALID,0,VALID,19.3503,VALID,78,VALID,0,
2010-08-29, 01:49:05,VALID,917.901,VALID,0,VALID,93.6308,VALID,0,VALID,19.3308,VALID,78,VALID,0,
2010-08-29, 01:50:05,VALID,917.896,VALID,0,VALID,93.4326,VALID,0,VALID,19.2918,VALID,78,VALID,0,
2010-08-29, 01:51:05,VALID,917.883,VALID,0,VALID,93.5317,VALID,0,VALID,19.2528,VALID,78,VALID,0.484766,
2010-08-29, 01:52:05,VALID,917.846,VALID,0,VALID,93.9129,VALID,0,VALID,19.1944,VALID,78,VALID,0.325781,
2010-08-29, 01:53:05,VALID,917.84,VALID,0,VALID,94.1416,VALID,0,VALID,19.1554,VALID,78,VALID,0.175781,
2010-08-29, 01:54:05,VALID,917.809,VALID,0,VALID,94.2254,VALID,0,VALID,19.1164,VALID,78,VALID,0,
2010-08-29, 01:55:05,VALID,917.786,VALID,0,VALID,94.355,VALID,0,VALID,19.0969,VALID,78,VALID,0,
2010-08-29, 01:56:05,VALID,917.785,VALID,0,VALID,94.4694,VALID,0.107441,VALID,19.0774,VALID,77,VALID,0,
2010-08-29, 01:57:05,VALID,917.778,VALID,0,VALID,94.5151,VALID,0.107441,VALID,19.0774,VALID,78,VALID,0,
2010-08-29, 01:58:05,VALID,917.766,VALID,0,VALID,94.6142,VALID,0,VALID,19.0579,VALID,78,VALID,0,
2010-08-29, 01:59:05,VALID,917.744,VALID,0,VALID,94.7209,VALID,0,VALID,19.0774,VALID,77,VALID,0,
2010-08-29, 02:00:05,VALID,917.739,VALID,0,VALID,94.7972,VALID,0,VALID,19.0564,VALID,78,VALID,0,
2010-08-29, 02:01:05,VALID,917.736,VALID,0,VALID,94.6828,VALID,0,VALID,19.0579,VALID,78,VALID,0,
2010-08-29, 02:02:05,VALID,917.702,VALID,0,VALID,94.4465,VALID,0,VALID,19.0189,VALID,78,VALID,0,
2010-08-29, 02:03:05,VALID,917.705,VALID,0,VALID,94.3245,VALID,0,VALID,18.9799,VALID,77,VALID,0.133203,
2010-08-29, 02:04:05,VALID,917.7,VALID,0,VALID,94.4236,VALID,0,VALID,18.9214,VALID,77,VALID,0.495703,
2010-08-29, 02:05:05,VALID,917.73,VALID,0,VALID,94.4617,VALID,0,VALID,18.8824,VALID,78,VALID,0.545313,
2010-08-29, 02:06:05,VALID,917.744,VALID,0,VALID,94.5761,VALID,0,VALID,18.8434,VALID,77,VALID,0.548047,
2010-08-29, 02:07:05,VALID,917.749,VALID,0,VALID,94.7743,VALID,0,VALID,18.785,VALID,77,VALID,0.705078,
2010-08-29, 02:08:05,VALID,917.774,VALID,0,VALID,94.9039,VALID,0,VALID,18.7655,VALID,78,VALID,0.758203,
2010-08-29, 02:09:05,VALID,917.785,VALID,0,VALID,94.9344,VALID,0,VALID,18.7669,VALID,78,VALID,0.741797,
2010-08-29, 02:10:05,VALID,917.794,VALID,0,VALID,94.6218,VALID,0,VALID,18.785,VALID,78,VALID,0.672266,
2010-08-29, 02:11:05,VALID,917.777,VALID,0,VALID,94.1644,VALID,0.107441,VALID,18.8629,VALID,78,VALID,0.824219,
2010-08-29, 02:12:05,VALID,917.757,VALID,0,VALID,93.6537,VALID,0.107441,VALID,18.9214,VALID,78,VALID,0.684766,
2010-08-29, 02:13:05,VALID,917.77,VALID,0,VALID,93.2725,VALID,0,VALID,18.9604,VALID,78,VALID,0.805859,
2010-08-29, 02:14:05,VALID,917.799,VALID,0,VALID,93.0743,VALID,0,VALID,19.0189,VALID,78,VALID,0.693359,
2010-08-29, 02:15:05,VALID,917.737,VALID,0,VALID,92.9752,VALID,0,VALID,19.0384,VALID,78,VALID,0.624609,
2010-08-29, 02:16:05,VALID,917.748,VALID,0,VALID,92.8303,VALID,0,VALID,19.0398,VALID,78,VALID,0.827734,
2010-08-29, 02:17:05,VALID,917.715,VALID,0,VALID,92.6474,VALID,0,VALID,19.0398,VALID,78,VALID,0.66875,
2010-08-29, 02:18:05,VALID,917.695,VALID,0,VALID,92.716,VALID,0,VALID,19.0384,VALID,78,VALID,0.462109,
2010-08-29, 02:19:05,VALID,917.702,VALID,0,VALID,92.8761,VALID,0.107441,VALID,19.0189,VALID,78,VALID,0.550391,
2010-08-29, 02:20:05,VALID,917.666,VALID,0,VALID,92.9447,VALID,0,VALID,19.0189,VALID,78,VALID,0.610937,
2010-08-29, 02:21:05,VALID,917.671,VALID,0,VALID,92.9066,VALID,0,VALID,19.0579,VALID,78,VALID,0.143359,
2010-08-29, 02:22:05,VALID,917.666,VALID,0,VALID,93.0514,VALID,0,VALID,19.0579,VALID,78,VALID,0,
2010-08-29, 02:23:05,VALID,917.659,VALID,0,VALID,93.1276,VALID,0,VALID,19.0788,VALID,78,VALID,0.188672,
2010-08-29, 02:24:05,VALID,917.674,VALID,0,VALID,93.0743,VALID,0,VALID,19.0384,VALID,78,VALID,0.244141,
2010-08-29, 02:25:05,VALID,917.66,VALID,0,VALID,93.2344,VALID,0,VALID,18.9799,VALID,78,VALID,0.395703,
2010-08-29, 02:26:05,VALID,917.633,VALID,0,VALID,93.059,VALID,0,VALID,18.9619,VALID,78,VALID,0.688672,
2010-08-29, 02:27:05,VALID,917.626,VALID,0,VALID,93.0895,VALID,0,VALID,18.9619,VALID,78,VALID,0.452734,
2010-08-29, 02:28:05,VALID,917.615,VALID,0,VALID,92.9676,VALID,0,VALID,18.9604,VALID,78,VALID,0.721875,
2010-08-29, 02:29:05,VALID,917.588,VALID,0,VALID,92.3806,VALID,0,VALID,18.9814,VALID,78,VALID,0.600391,
2010-08-29, 02:30:05,VALID,917.618,VALID,0,VALID,92.6169,VALID,0,VALID,19.0203,VALID,78,VALID,0.584766,
2010-08-29, 02:31:05,VALID,917.587,VALID,0,VALID,92.8151,VALID,0,VALID,19.0189,VALID,78,VALID,0.273828,
2010-08-29, 02:32:05,VALID,917.551,VALID,0,VALID,92.6779,VALID,0,VALID,19.0384,VALID,78,VALID,0.208203,
2010-08-29, 02:33:05,VALID,917.543,VALID,0,VALID,92.9371,VALID,0,VALID,19.0398,VALID,78,VALID,0.345703,
2010-08-29, 02:34:05,VALID,917.502,VALID,0,VALID,92.4873,VALID,0,VALID,19.0203,VALID,78,VALID,0.533594,
2010-08-29, 02:35:05,VALID,917.525,VALID,0,VALID,91.9613,VALID,0,VALID,19.0008,VALID,78,VALID,0.664844,
2010-08-29, 02:36:05,VALID,917.458,VALID,0,VALID,92.1595,VALID,0,VALID,19.0008,VALID,78,VALID,0.767187,
2010-08-29, 02:37:05,VALID,917.436,VALID,0,VALID,92.3043,VALID,0,VALID,18.9814,VALID,78,VALID,0.940234,
2010-08-29, 02:38:05,VALID,917.406,VALID,0,VALID,92.5102,VALID,0,VALID,18.9619,VALID,78,VALID,0.682422,
2010-08-29, 02:39:05,VALID,917.403,VALID,0,VALID,92.2662,VALID,0,VALID,18.9214,VALID,78,VALID,0.408203,
2010-08-29, 02:40:05,VALID,917.389,VALID,0,VALID,91.6945,VALID,0,VALID,18.9604,VALID,77,VALID,0.730078,
2010-08-29, 02:41:05,VALID,917.377,VALID,0,VALID,91.1989,VALID,0,VALID,19.0189,VALID,78,VALID,0.563281,
2010-08-29, 02:42:05,VALID,917.445,VALID,0,VALID,90.4976,VALID,0,VALID,19.0969,VALID,78,VALID,0.8125,
2010-08-29, 02:43:05,VALID,917.413,VALID,0,VALID,90.3375,VALID,0,VALID,19.1944,VALID,78,VALID,0.623047,
2010-08-29, 02:44:05,VALID,917.434,VALID,0,VALID,89.8191,VALID,0,VALID,19.2543,VALID,78,VALID,0.578125,
2010-08-29, 02:45:05,VALID,917.488,VALID,0,VALID,90.0249,VALID,0,VALID,19.2933,VALID,78,VALID,0.38125,
2010-08-29, 02:46:05,VALID,917.472,VALID,0,VALID,90.0402,VALID,0,VALID,19.3128,VALID,78,VALID,0.16875,
2010-08-29, 02:47:05,VALID,917.467,VALID,0,VALID,89.3388,VALID,0,VALID,19.2723,VALID,78,VALID,0.440234,
2010-08-29, 02:48:05,VALID,917.502,VALID,0,VALID,89.0949,VALID,0,VALID,19.3323,VALID,78,VALID,0.316797,
2010-08-29, 02:49:05,VALID,917.505,VALID,0,VALID,89.6056,VALID,0,VALID,19.3698,VALID,78,VALID,0,
2010-08-29, 02:50:05,VALID,917.463,VALID,0,VALID,90.0478,VALID,0,VALID,19.3698,VALID,78,VALID,0.455859,
2010-08-29, 02:51:05,VALID,917.489,VALID,0,VALID,90.2917,VALID,0,VALID,19.3713,VALID,77,VALID,0.542188,
2010-08-29, 02:52:05,VALID,917.466,VALID,0,VALID,90.6653,VALID,0,VALID,19.3128,VALID,78,VALID,0.496094,
2010-08-29, 02:53:05,VALID,917.487,VALID,0,VALID,90.8406,VALID,0,VALID,19.3128,VALID,78,VALID,0.499609,
2010-08-29, 02:54:05,VALID,917.456,VALID,0,VALID,91.237,VALID,0,VALID,19.2528,VALID,78,VALID,0.613672,
2010-08-29, 02:55:05,VALID,917.438,VALID,0,VALID,91.3971,VALID,0,VALID,19.1763,VALID,78,VALID,0.669141,
2010-08-29, 02:56:05,VALID,917.404,VALID,0,VALID,91.8088,VALID,0,VALID,19.1373,VALID,78,VALID,0.686328,
2010-08-29, 02:57:05,VALID,917.384,VALID,0,VALID,92.3501,VALID,0,VALID,19.0774,VALID,78,VALID,0.641016,
2010-08-29, 02:58:05,VALID,917.386,VALID,0,VALID,92.7922,VALID,0,VALID,19.0579,VALID,78,VALID,0.366016,
2010-08-29, 02:59:05,VALID,917.349,VALID,0,VALID,93.2268,VALID,0,VALID,19.0593,VALID,77,VALID,0.214844,
2010-08-29, 03:00:05,VALID,917.35,VALID,0,VALID,93.4936,VALID,0,VALID,19.0384,VALID,78,VALID,0.173828,
2010-08-29, 03:01:05,VALID,917.339,VALID,0,VALID,93.4021,VALID,0,VALID,19.0203,VALID,78,VALID,0.218359,
2010-08-29, 03:02:05,VALID,917.346,VALID,0,VALID,93.6613,VALID,0,VALID,19.0008,VALID,78,VALID,0.488281,
2010-08-29, 03:03:05,VALID,917.369,VALID,0,VALID,93.9967,VALID,0,VALID,18.9799,VALID,78,VALID,0.171094,
2010-08-29, 03:04:05,VALID,917.333,VALID,0,VALID,94.2254,VALID,0,VALID,18.9604,VALID,77,VALID,0.466406,
2010-08-29, 03:05:05,VALID,917.359,VALID,0,VALID,94.3855,VALID,0,VALID,18.9409,VALID,78,VALID,0.350391,
2010-08-29, 03:06:05,VALID,917.354,VALID,0,VALID,94.5227,VALID,0,VALID,18.9619,VALID,78,VALID,0.395703,
2010-08-29, 03:07:05,VALID,917.373,VALID,0,VALID,94.538,VALID,0,VALID,18.9214,VALID,78,VALID,0.312109,
2010-08-29, 03:08:05,VALID,917.381,VALID,0,VALID,94.4465,VALID,0,VALID,18.9019,VALID,78,VALID,0.332812,
2010-08-29, 03:09:05,VALID,917.411,VALID,0,VALID,94.233,VALID,0,VALID,18.9019,VALID,78,VALID,0.480859,
2010-08-29, 03:10:05,VALID,917.423,VALID,0,VALID,93.707,VALID,0,VALID,18.9229,VALID,78,VALID,0.374219,
2010-08-29, 03:11:05,VALID,917.475,VALID,0,VALID,93.1276,VALID,0,VALID,18.9229,VALID,77,VALID,0.214062,
2010-08-29, 03:12:05,VALID,917.447,VALID,0,VALID,93.0285,VALID,0,VALID,18.9604,VALID,78,VALID,0,
2010-08-29, 03:13:05,VALID,917.452,VALID,0,VALID,92.7617,VALID,0,VALID,18.9814,VALID,77,VALID,0,
2010-08-29, 03:14:05,VALID,917.451,VALID,0,VALID,92.5102,VALID,0,VALID,18.9799,VALID,77,VALID,0,
2010-08-29, 03:15:05,VALID,917.443,VALID,0,VALID,92.5254,VALID,0,VALID,18.9799,VALID,78,VALID,0,
2010-08-29, 03:16:05,VALID,917.437,VALID,0,VALID,92.6397,VALID,0,VALID,18.9814,VALID,78,VALID,0,
2010-08-29, 03:17:05,VALID,917.445,VALID,0,VALID,92.6169,VALID,0,VALID,18.9619,VALID,78,VALID,0,
2010-08-29, 03:18:05,VALID,917.444,VALID,0,VALID,92.6245,VALID,0,VALID,18.9409,VALID,78,VALID,0,
2010-08-29, 03:19:05,VALID,917.414,VALID,0,VALID,92.6626,VALID,0,VALID,18.9214,VALID,78,VALID,0,
2010-08-29, 03:20:05,VALID,917.405,VALID,0,VALID,92.7236,VALID,0,VALID,18.9229,VALID,78,VALID,0,
2010-08-29, 03:21:05,VALID,917.407,VALID,0,VALID,92.777,VALID,0,VALID,18.9229,VALID,78,VALID,0,
2010-08-29, 03:22:04,VALID,917.397,VALID,0,VALID,92.8685,VALID,0,VALID,18.9229,VALID,78,VALID,0,
2010-08-29, 03:23:04,VALID,917.372,VALID,0,VALID,92.7389,VALID,0,VALID,18.9424,VALID,78,VALID,0,
2010-08-29, 03:24:04,VALID,917.376,VALID,0,VALID,92.5102,VALID,0,VALID,18.9619,VALID,78,VALID,0,
2010-08-29, 03:25:04,VALID,917.387,VALID,0,VALID,92.4415,VALID,0,VALID,18.9409,VALID,78,VALID,0,
2010-08-29, 03:26:04,VALID,917.399,VALID,0,VALID,92.2052,VALID,0,VALID,18.9409,VALID,78,VALID,0,
2010-08-29, 03:27:04,VALID,917.411,VALID,0,VALID,92.007,VALID,0,VALID,18.9619,VALID,78,VALID,0.194922,
2010-08-29, 03:28:04,VALID,917.401,VALID,0,VALID,91.9765,VALID,0,VALID,18.9619,VALID,78,VALID,0.416406,
2010-08-29, 03:29:04,VALID,917.423,VALID,0,VALID,92.1519,VALID,0,VALID,18.9034,VALID,78,VALID,0.486719,
2010-08-29, 03:30:04,VALID,917.387,VALID,0,VALID,92.2814,VALID,0,VALID,18.8824,VALID,78,VALID,0.090625,
2010-08-29, 03:31:04,VALID,917.368,VALID,0,VALID,92.3729,VALID,0,VALID,18.8629,VALID,77,VALID,0.225391,
2010-08-29, 03:32:04,VALID,917.368,VALID,0,VALID,92.5635,VALID,0,VALID,18.8839,VALID,78,VALID,0.504687,
2010-08-29, 03:33:04,VALID,917.391,VALID,0,VALID,92.6474,VALID,0,VALID,18.8644,VALID,78,VALID,0.432031,
2010-08-29, 03:34:04,VALID,917.387,VALID,0,VALID,92.9828,VALID,0,VALID,18.8434,VALID,78,VALID,0.732422,
2010-08-29, 03:35:04,VALID,917.398,VALID,0,VALID,93.1048,VALID,0,VALID,18.8449,VALID,77,VALID,0.565234,
2010-08-29, 03:36:04,VALID,917.404,VALID,0,VALID,93.2039,VALID,0,VALID,18.8045,VALID,78,VALID,0.465234,
2010-08-29, 03:37:04,VALID,917.413,VALID,0,VALID,93.2039,VALID,0,VALID,18.8045,VALID,77,VALID,0.557031,
2010-08-29, 03:38:04,VALID,917.436,VALID,0,VALID,92.9904,VALID,0,VALID,18.7864,VALID,78,VALID,0.274219,
2010-08-29, 03:39:04,VALID,917.465,VALID,0,VALID,93.0514,VALID,0,VALID,18.7265,VALID,78,VALID,0.147266,
2010-08-29, 03:40:04,VALID,917.463,VALID,0,VALID,93.1886,VALID,0,VALID,18.7279,VALID,78,VALID,0.224609,
2010-08-29, 03:41:04,VALID,917.469,VALID,0,VALID,93.1886,VALID,0,VALID,18.7279,VALID,77,VALID,0,
2010-08-29, 03:42:04,VALID,917.482,VALID,0,VALID,93.0895,VALID,0,VALID,18.7474,VALID,78,VALID,0,
2010-08-29, 03:43:04,VALID,917.506,VALID,0,VALID,93.1429,VALID,0,VALID,18.7474,VALID,78,VALID,0,
2010-08-29, 03:44:04,VALID,917.484,VALID,0,VALID,93.0209,VALID,0,VALID,18.707,VALID,78,VALID,0.00390625,
2010-08-29, 03:45:04,VALID,917.469,VALID,0,VALID,93.303,VALID,0,VALID,18.6694,VALID,78,VALID,0.469531,
2010-08-29, 03:46:04,VALID,917.469,VALID,0,VALID,93.4859,VALID,0,VALID,18.6485,VALID,77,VALID,0.278516,
2010-08-29, 03:47:04,VALID,917.471,VALID,0,VALID,93.2725,VALID,0,VALID,18.6889,VALID,78,VALID,0,
2010-08-29, 03:48:04,VALID,917.44,VALID,0,VALID,93.2649,VALID,0,VALID,18.707,VALID,78,VALID,0,